Regional Weather Roundup
Issued by NWS

Home | Current Version | Previous Version | Text Only | Print | Product List | Glossary On
Versions: 1 2 3 4 5 6 7 8 9 10 11 12 13 14 15 16 17 18 19 20 21 22 23 24 25 26 27 28 29 30 31 32 33 34 35 36 37 38 39 40 41 42 43 44 45 46 47 48 49 50
000
ASUS43 KFSD 301602
RWRSD

WEATHER ROUNDUP FOR SOUTH DAKOTA
NATIONAL WEATHER SERVICE SIOUX FALLS SD
1100 AM CDT SAT MAY 30 2015

NOTE: "FAIR" INDICATES FEW OR NO CLOUDS BELOW 12,000 FEET WITH NO
SIGNIFICANT WEATHER AND/OR OBSTRUCTIONS TO VISIBILITY.


SDZ001>005-009-010-012>017-301700-
NORTHWEST AND NORTH CENTRAL SOUTH DAKOTA

CITY           SKY/WX    TMP DP  RH WIND       PRES   REMARKS
BUFFALO          N/A     53  37  54 SE21G28   30.18F
FAITH            N/A     51  37  58 SE13      30.30F
MOBRIDGE       SUNNY     48  32  53 E8        30.35F
$$

SDZ012>016-024>037-041>051-057-063-072>074-301700-
SOUTHWEST AND SOUTH CENTRAL SOUTH DAKOTA

CITY           SKY/WX    TMP DP  RH WIND       PRES   REMARKS
RAPID CTY ARPT MOSUNNY   52  40  63 SE16      30.27F
PIERRE         SUNNY     50  36  58 NE6       30.34F
CUSTER         CLOUDY    41  38  89 S8        30.26F
ELLSWORTH AFB  MOSUNNY   52  41  66 S14G25    30.26F
PHILIP         MOSUNNY   53  39  59 VRB7G17   30.32F
PINE RIDGE     SUNNY     53  39  59 SE9       30.29F
WINNER         FAIR      52  34  50 NE12      30.34S
$$

SDZ004>011-016>023-039-040-301700-
NORTHEAST SOUTH DAKOTA

CITY           SKY/WX    TMP DP  RH WIND       PRES   REMARKS
ABERDEEN       SUNNY     47  33  58 N13G18    30.37F
WATERTOWN      MOSUNNY   49  38  65 NE10      30.31R
BROOKINGS      PTSUNNY   46  39  76 N10       30.31R
SISSETON         N/A     46  38  73 N14       30.34F
$$

SDZ017-020-022-023-036>040-048>070-301700-
SOUTHEAST SOUTH DAKOTA

CITY           SKY/WX    TMP DP  RH WIND       PRES   REMARKS
SIOUX FALLS    PTSUNNY   53  43  68 NE12      30.29R
HURON          SUNNY     50  36  58 NE13G20   30.33F
CHAMBERLAIN    SUNNY     48  33  56 NE9       30.34S
MITCHELL       SUNNY     52  41  66 N12       30.32S
YANKTON        SUNNY     54  39  58 N13       30.28S
$$

ABBREVIATIONS USED IN REMARKS
   TC - TEMPERATURE IN CELSIUS
  WCI - WIND CHILL INDEX
   HX - HEAT INDEX
  VSB - VISIBILITY



USA.gov is the U.S. government's official web portal to all federal, state and local government web resources and services.